EW5921 Weather Reports


Display with metric or nautical units.
time (UTC)temp
F
wind
direction
speed
MPH
gust
MPH
rain 1hr
in
rain 24hr
in
rain mn
in
humidity
%
barometer
mb
20200331165541 37 185 2.0 9.0 0.00 0.10 0.03 90 1009.4
20200331165039 37 223 4.0 10.0 0.00 0.10 0.03 90 1009.4
20200331164531 37 241 3.0 14.0 0.00 0.10 0.03 91 1009.4
20200331164044 37 214 2.0 14.0 0.00 0.10 0.03 91 1009.2
20200331163537 37 209 0.0 7.0 0.00 0.10 0.03 91 1009.2
20200331163030 37 233 0.0 7.0 0.00 0.10 0.03 92 1009.1
20200331162543 37 238 2.0 6.0 0.00 0.10 0.03 92 1009.1
20200331162036 37 179 0.0 11.0 0.00 0.10 0.03 92 1009.1
20200331161532 36 185 2.0 11.0 0.00 0.10 0.03 92 1009.2
20200331161046 36 232 4.0 10.0 0.00 0.10 0.03 93 1009.3
20200331160538 36 219 1.0 9.0 0.00 0.10 0.03 93 1009.3
20200331160031 36 273 2.0 10.0 0.01 0.10 0.03 93 1009.4
20200331155544 36 204 2.0 10.0 0.01 0.11 0.03 94 1009.4
20200331155037 36 271 1.0 15.0 0.01 0.11 0.03 94 1009.4
20200331154529 36 266 4.0 15.0 0.01 0.11 0.03 94 1009.5
20200331154044 36 265 1.0 11.0 0.01 0.11 0.03 94 1009.4
20200331153540 36 193 2.0 11.0 0.01 0.11 0.03 94 1009.5
20200331153033 36 261 1.0 9.0 0.01 0.11 0.03 95 1009.6
20200331152546 36 213 3.0 9.0 0.01 0.11 0.03 95 1009.6
20200331152039 35 264 2.0 11.0 0.01 0.11 0.03 94 1009.6
20200331151532 35 192 4.0 11.0 0.01 0.11 0.03 95 1009.6
20200331151045 35 197 1.0 9.0 0.01 0.11 0.03 95 1009.6
20200331150537 35 228 0.0 7.0 0.01 0.11 0.03 94 1009.5
20200331150030 35 217 2.0 7.0 0.00 0.10 0.02 94 1009.5
20200331145527 35 74 0.0 9.0 0.00 0.11 0.02 94 1009.6
20200331145040 35 211 4.0 9.0 0.00 0.11 0.02 95 1009.7
20200331144532 35 208 0.0 9.0 0.00 0.11 0.02 94 1009.6
20200331144046 35 205 1.0 9.0 0.00 0.11 0.02 94 1009.7
20200331143539 35 200 2.0 6.0 0.00 0.11 0.02 94 1009.8
20200331143031 35 220 1.0 7.0 0.01 0.11 0.02 94 1009.9
20200331142544 35 194 2.0 7.0 0.01 0.11 0.02 94 1010.0
20200331142037 35 194 3.0 7.0 0.01 0.11 0.02 94 1009.9
20200331141534 35 200 0.0 2.0 0.01 0.11 0.02 94 1009.8
20200331141027 35 211 0.0 2.0 0.01 0.11 0.02 94 1009.8
20200331140539 35 216 0.0 1.0 0.01 0.11 0.02 94 1009.8
20200331140032 35 227 0.0 1.0 0.02 0.11 0.02 94 1009.9
20200331135545 35 198 0.0 1.0 0.02 0.11 0.02 94 1009.8
20200331135038 35 196 0.0 0.0 0.02 0.11 0.02 94 1009.8
20200331134531 34 196 0.0 4.0 0.02 0.11 0.02 94 1009.8
20200331134028 34 193 0.0 4.0 0.02 0.11 0.02 94 1009.8
20200331133541 34 211 0.0 4.0 0.02 0.11 0.02 94 1009.8
20200331133034 34 219 0.0 2.0 0.01 0.10 0.01 94 1009.8
20200331132526 34 212 0.0 5.0 0.01 0.10 0.01 94 1009.8
20200331132039 34 212 0.0 6.0 0.01 0.10 0.01 94 1009.7
20200331131532 34 211 2.0 6.0 0.01 0.10 0.01 94 1009.7
20200331131045 34 155 2.0 7.0 0.01 0.10 0.01 94 1009.8
20200331130538 34 210 3.0 7.0 0.01 0.10 0.01 94 1009.8
20200331130036 34 258 4.0 8.0 0.00 0.09 0.00 94 1009.9
20200331125527 34 184 1.0 5.0 0.00 0.09 0.00 94 1010.0
20200331125041 34 259 1.0 5.0 0.00 0.09 0.00 94 1010.0
20200331124533 34 205 0.0 4.0 0.00 0.09 0.00 94 1010.0
20200331124026 34 221 0.0 5.0 0.00 0.09 0.00 94 1010.0
20200331123539 34 216 2.0 5.0 0.00 0.09 0.00 94 1010.0
20200331123032 34 181 0.0 5.0 0.00 0.09 0.00 94 1010.0
20200331122545 34 229 1.0 5.0 0.00 0.09 0.00 94 1010.1
20200331122042 34 194 0.0 1.0 0.00 0.09 0.00 94 1010.2
20200331121534 34 205 0.0 1.0 0.00 0.09 0.00 94 1010.1
20200331121027 33 192 0.0 1.0 0.00 0.09 0.00 93 1010.1
20200331120540 33 179 0.0 0.0 0.00 0.09 0.00 93 1010.2
20200331120034 33 180 0.0 0.0 0.00 0.09 0.00 93 1010.2
20200331115546 33 171 0.0 0.0 0.00 0.09 0.00 93 1010.2
20200331115039 33 169 0.0 0.0 0.00 0.09 0.00 92 1010.2
20200331114532 33 169 0.0 0.0 0.00 0.09 0.00 92 1010.2
20200331114028 33 170 0.0 0.0 0.00 0.09 0.00 92 1010.3
20200331113541 33 170 0.0 0.0 0.00 0.09 0.00 92 1010.3
20200331113034 33 170 0.0 0.0 0.00 0.09 0.00 92 1010.3
20200331112527 33 180 0.0 0.0 0.00 0.09 0.00 92 1010.5
20200331112040 33 180 0.0 0.0 0.00 0.09 0.00 92 1010.5
20200331111532 33 180 0.0 0.0 0.00 0.09 0.00 92 1010.6
20200331111046 33 184 0.0 0.0 0.00 0.09 0.00 92 1010.7
20200331110538 33 188 0.0 0.0 0.00 0.09 0.00 92 1010.7
20200331110035 33 188 0.0 0.0 0.00 0.09 0.00 92 1010.7
20200331105528 33 188 0.0 0.0 0.00 0.09 0.00 92 1010.7
20200331105041 33 165 0.0 2.0 0.00 0.09 0.00 92 1010.7
20200331104533 33 158 0.0 4.0 0.00 0.09 0.00 91 1010.8
20200331104027 33 197 1.0 4.0 0.00 0.09 0.00 91 1010.8
20200331103539 33 161 0.0 4.0 0.00 0.09 0.00 91 1010.9
20200331103032 33 159 1.0 7.0 0.00 0.09 0.00 91 1010.9
20200331102529 33 179 1.0 7.0 0.00 0.09 0.00 91 1010.9
20200331102042 33 185 0.0 5.0 0.00 0.09 0.00 91 1011.0
20200331101535 33 216 0.0 6.0 0.00 0.09 0.00 91 1011.1
20200331101028 33 180 0.0 6.0 0.00 0.09 0.00 91 1011.0
20200331100540 33 173 1.0 6.0 0.00 0.09 0.00 91 1011.0
20200331100034 33 180 2.0 5.0 0.00 0.09 0.00 91 1011.1
20200331095526 33 147 1.0 5.0 0.00 0.09 0.00 91 1011.1
20200331095042 33 146 0.0 7.0 0.00 0.09 0.00 91 1011.0
20200331094536 33 188 1.0 7.0 0.00 0.09 0.00 90 1011.1
20200331094029 33 179 0.0 6.0 0.00 0.09 0.00 90 1011.1
20200331093542 33 159 1.0 6.0 0.00 0.09 0.00 90 1011.0
20200331093036 33 206 1.0 6.0 0.00 0.09 0.00 90 1011.0
20200331092528 33 206 2.0 7.0 0.00 0.09 0.00 90 1011.0
20200331091026 34 200 0.0 7.0 0.00 0.09 0.00 89 1011.0
20200331090543 34 157 1.0 7.0 0.00 0.09 0.00 89 1010.9
20200331090036 34 217 1.0 5.0 0.00 0.09 0.00 89 1010.9
20200331085528 34 200 2.0 9.0 0.00 0.09 0.00 89 1011.0
20200331085043 34 215 2.0 8.0 0.00 0.09 0.00 89 1011.1
20200331084535 34 231 2.0 8.0 0.00 0.09 0.00 89 1011.1
20200331084028 35 220 3.0 7.0 0.00 0.09 0.00 89 1011.0
20200331083541 35 205 3.0 7.0 0.00 0.09 0.00 89 1011.1
20200331083034 35 248 3.0 8.0 0.00 0.09 0.00 89 1011.1
20200331082531 35 212 2.0 8.0 0.00 0.09 0.00 89 1011.0
20200331082044 35 216 2.0 8.0 0.00 0.09 0.00 89 1010.8
20200331081536 35 182 3.0 9.0 0.00 0.09 0.00 89 1010.8
20200331081029 35 217 3.0 10.0 0.00 0.09 0.00 89 1010.8
20200331080542 35 243 4.0 8.0 0.00 0.09 0.00 89 1010.8
20200331080036 35 248 5.0 8.0 0.00 0.09 0.00 89 1010.8
20200331075528 35 192 4.0 10.0 0.00 0.09 0.00 89 1010.8
20200331075041 35 218 3.0 8.0 0.00 0.09 0.00 89 1010.8
20200331074537 36 217 3.0 9.0 0.00 0.09 0.00 88 1011.0
20200331074031 36 232 4.0 14.0 0.00 0.09 0.00 88 1011.0
20200331073543 36 157 4.0 14.0 0.00 0.09 0.00 88 1011.1
20200331073036 36 211 4.0 9.0 0.00 0.09 0.00 88 1011.0
20200331072529 36 181 3.0 11.0 0.00 0.09 0.00 87 1011.1
20200331072042 36 188 3.0 11.0 0.00 0.09 0.00 87 1011.1
20200331071534 36 168 5.0 10.0 0.00 0.09 0.00 87 1011.1
20200331071032 36 208 4.0 9.0 0.00 0.09 0.00 87 1011.1
20200331070544 36 209 4.0 9.0 0.00 0.09 0.00 86 1011.0
20200331070038 36 240 2.0 6.0 0.00 0.09 0.00 86 1011.0
20200331065529 36 196 2.0 9.0 0.00 0.09 0.09 86 1010.9
20200331065042 36 194 2.0 9.0 0.00 0.09 0.09 86 1010.8
20200331064535 36 190 4.0 10.0 0.00 0.09 0.09 85 1010.9
20200331064028 36 190 4.0 9.0 0.00 0.09 0.09 85 1010.9
20200331063540 36 232 2.0 12.0 0.00 0.09 0.09 85 1010.9
20200331063041 36 213 4.0 12.0 0.00 0.09 0.09 85 1011.0
20200331062530 37 184 3.0 9.0 0.00 0.09 0.09 85 1010.9
20200331062044 37 180 3.0 9.0 0.00 0.09 0.09 85 1011.0
20200331061536 37 243 3.0 8.0 0.00 0.09 0.09 85 1011.0
20200331061029 37 176 4.0 12.0 0.00 0.09 0.09 85 1010.8
20200331060542 37 226 2.0 12.0 0.00 0.09 0.09 85 1010.8
20200331060036 37 223 4.0 13.0 0.00 0.09 0.09 85 1010.8
20200331055528 37 254 5.0 13.0 0.00 0.09 0.09 85 1010.8
20200331055045 37 207 4.0 12.0 0.00 0.09 0.09 85 1010.8
20200331054538 37 248 5.0 15.0 0.00 0.09 0.09 85 1010.9
20200331054031 37 206 6.0 15.0 0.00 0.09 0.09 85 1010.8
20200331053544 37 248 4.0 9.0 0.00 0.09 0.09 85 1010.9
20200331053037 37 202 3.0 9.0 0.00 0.09 0.09 85 1010.8
20200331052529 37 255 4.0 12.0 0.00 0.09 0.09 85 1010.8
20200331052043 37 184 4.0 11.0 0.00 0.09 0.09 85 1010.8
20200331051535 37 158 5.0 11.0 0.00 0.09 0.09 84 1010.8
20200331051033 37 188 4.0 7.0 0.00 0.09 0.09 84 1010.8
20200331050526 37 194 2.0 8.0 0.00 0.09 0.09 83 1010.9
20200331050039 37 210 2.0 10.0 0.00 0.09 0.09 83 1011.0
20200331045531 37 170 3.0 9.0 0.00 0.09 0.09 83 1011.0
20200331045045 38 179 2.0 15.0 0.00 0.09 0.09 82 1011.0
20200331044539 38 185 4.0 15.0 0.00 0.09 0.09 82 1011.0
20200331044030 38 195 4.0 11.0 0.00 0.09 0.09 82 1011.0
20200331043527 38 164 6.0 12.0 0.00 0.09 0.09 82 1011.0
20200331043040 38 182 4.0 15.0 0.00 0.09 0.09 82 1011.0
20200331042533 38 212 5.0 15.0 0.00 0.09 0.09 82 1011.1
20200331042046 38 196 3.0 11.0 0.00 0.09 0.09 82 1011.2
20200331041538 38 214 6.0 13.0 0.00 0.09 0.09 82 1011.3
20200331041053 38 216 5.0 13.0 0.00 0.09 0.09 82 1011.2
20200331040544 38 180 4.0 11.0 0.00 0.09 0.09 82 1011.2
20200331040037 38 173 5.0 11.0 0.00 0.09 0.09 82 1011.0
20200331035534 38 196 4.0 11.0 0.00 0.09 0.09 82 1011.0
20200331035027 38 200 6.0 11.0 0.00 0.09 0.09 81 1010.9
20200331034540 38 146 4.0 10.0 0.00 0.09 0.09 81 1010.9
20200331034031 38 135 3.0 8.0 0.00 0.09 0.09 80 1010.8
20200331033544 38 188 2.0 7.0 0.00 0.09 0.09 80 1010.7
20200331033037 38 140 4.0 11.0 0.00 0.09 0.09 79 1010.7
20200331032530 39 186 6.0 11.0 0.00 0.09 0.09 78 1010.7
20200331032043 39 122 2.0 10.0 0.00 0.09 0.09 77 1010.7
20200331031540 39 165 2.0 7.0 0.00 0.09 0.09 77 1010.7
20200331031033 40 148 4.0 7.0 0.00 0.09 0.09 76 1010.7
20200331030545 40 139 2.0 11.0 0.00 0.09 0.09 75 1010.7
20200331030039 40 152 3.0 8.0 0.00 0.09 0.09 75 1010.6
20200331025531 40 140 2.0 9.0 0.00 0.09 0.09 75 1010.6
20200331025044 40 182 4.0 9.0 0.00 0.09 0.09 74 1010.5
20200331024537 40 146 3.0 8.0 0.00 0.09 0.09 75 1010.6
20200331024030 41 180 2.0 5.0 0.00 0.09 0.09 76 1010.6
20200331023526 41 234 1.0 7.0 0.00 0.09 0.09 75 1010.5
20200331023040 41 200 2.0 14.0 0.00 0.09 0.09 74 1010.5
20200331022532 41 207 4.0 14.0 0.00 0.09 0.09 73 1010.5
20200331022045 41 238 5.0 10.0 0.00 0.09 0.09 72 1010.4
20200331021538 41 271 5.0 13.0 0.00 0.09 0.09 72 1010.3
20200331021031 41 169 4.0 16.0 0.00 0.09 0.09 72 1010.2
20200331020543 41 205 5.0 16.0 0.00 0.09 0.09 71 1010.2
20200331020037 41 142 6.0 12.0 0.00 0.09 0.09 71 1010.3
20200331015533 41 271 4.0 10.0 0.00 0.09 0.09 70 1010.4
20200331015026 41 236 5.0 10.0 0.00 0.09 0.09 70 1010.2
20200331014539 41 184 4.0 11.0 0.00 0.09 0.09 71 1010.3
20200331014032 42 205 4.0 11.0 0.00 0.09 0.09 72 1010.3
20200331013545 42 213 5.0 10.0 0.00 0.09 0.09 72 1010.3
20200331013038 41 236 5.0 15.0 0.00 0.09 0.09 72 1010.4
20200331012530 41 190 6.0 18.0 0.00 0.09 0.09 73 1010.4
20200331012027 41 194 8.0 18.0 0.00 0.09 0.09 73 1010.2
20200331011540 41 191 6.0 21.0 0.00 0.09 0.09 76 1010.2
20200331011033 42 181 6.0 21.0 0.01 0.09 0.09 75 1010.1
20200331010526 42 159 8.0 16.0 0.01 0.09 0.09 73 1010.1
20200331010040 43 258 5.0 19.0 0.01 0.09 0.09 72 1010.2
20200331005532 43 192 8.0 20.0 0.01 0.09 0.09 70 1010.0
20200331005046 43 215 8.0 20.0 0.01 0.09 0.09 68 1009.9
20200331004538 43 186 6.0 16.0 0.01 0.09 0.09 70 1009.8
20200331004035 44 198 5.0 18.0 0.01 0.09 0.09 69 1009.8
20200331003528 44 224 6.0 18.0 0.01 0.09 0.09 71 1009.7
20200331003041 44 180 4.0 13.0 0.01 0.09 0.09 72 1009.6
20200331002533 44 220 4.0 15.0 0.01 0.09 0.09 72 1009.6
20200331002026 45 183 4.0 15.0 0.01 0.09 0.09 70 1009.6
20200331001539 45 261 5.0 15.0 0.01 0.09 0.09 68 1009.5
20200331001038 46 229 6.0 18.0 0.00 0.08 0.08 63 1009.4
20200331000526 46 151 9.0 18.0 0.00 0.08 0.08 57 1009.3
20200331000104 46 202 6.0 15.0 0.00 0.08 0.08 49 1009.1
20200330235536 47 219 6.0 19.0 0.00 0.08 0.08 48 1009.1
20200330235028 47 194 6.0 13.0 0.00 0.08 0.08 49 1009.1
20200330234541 46 36 5.0 11.0 0.00 0.08 0.08 50 1009.1
20200330234033 46 265 7.0 12.0 0.00 0.08 0.08 49 1009.1
20200330233526 46 127 4.0 13.0 0.00 0.08 0.08 49 1009.1
20200330233039 46 240 6.0 13.0 0.00 0.08 0.08 50 1009.0
20200330232532 46 238 7.0 11.0 0.00 0.08 0.08 50 1008.8
20200330232029 46 231 5.0 18.0 0.00 0.08 0.08 51 1008.8
20200330231541 46 188 4.0 18.0 0.00 0.08 0.08 52 1008.8
20200330231035 46 273 4.0 18.0 0.00 0.08 0.08 53 1008.8
20200330230528 46 250 8.0 18.0 0.00 0.08 0.08 52 1008.8
20200330230040 46 202 5.0 15.0 0.00 0.08 0.08 54 1008.8
20200330225533 46 242 9.0 19.0 0.00 0.08 0.08 54 1008.8
20200330225026 46 257 7.0 21.0 0.00 0.08 0.08 57 1008.7
20200330224539 46 259 9.0 21.0 0.00 0.08 0.08 58 1008.7
20200330224036 46 313 6.0 14.0 0.00 0.08 0.08 59 1008.6
20200330223528 46 240 5.0 12.0 0.00 0.08 0.08 60 1008.6
20200330223043 45 227 6.0 16.0 0.00 0.08 0.08 59 1008.6
20200330222535 45 243 6.0 16.0 0.00 0.08 0.08 61 1008.5
20200330222028 45 234 7.0 14.0 0.00 0.08 0.08 61 1008.6
20200330221541 45 251 4.0 15.0 0.00 0.08 0.08 64 1008.6
20200330221034 45 212 8.0 15.0 0.00 0.08 0.08 60 1008.6
20200330220531 45 234 8.0 15.0 0.00 0.08 0.08 63 1008.6
20200330220044 45 286 7.0 14.0 0.00 0.08 0.08 62 1008.6
20200330215536 45 250 6.0 18.0 0.00 0.08 0.08 62 1008.5
20200330215029 45 219 8.0 18.0 0.00 0.08 0.08 61 1008.4
20200330214542 45 249 8.0 16.0 0.00 0.08 0.08 62 1008.4
20200330214035 45 267 4.0 14.0 0.00 0.08 0.08 69 1008.5
20200330213528 45 275 7.0 14.0 0.00 0.08 0.08 68 1008.4
20200330213042 45 259 5.0 12.0 0.00 0.08 0.08 70 1008.1
20200330212539 45 289 5.0 13.0 0.00 0.08 0.08 72 1008.1
20200330212031 45 229 6.0 18.0 0.00 0.08 0.08 71 1008.0
20200330211544 45 219 8.0 18.0 0.00 0.08 0.08 72 1007.9
20200330211037 45 220 9.0 16.0 0.00 0.08 0.08 72 1007.8
20200330210530 45 235 6.0 12.0 0.00 0.08 0.08 74 1007.7
20200330210043 45 260 6.0 12.0 0.00 0.08 0.08 74 1007.5
20200330205536 45 168 5.0 13.0 0.00 0.08 0.08 75 1007.3
20200330205028 45 185 7.0 15.0 0.00 0.08 0.08 75 1007.4
20200330204545 45 166 5.0 13.0 0.00 0.08 0.08 75 1007.3
20200330204037 45 198 7.0 13.0 0.00 0.08 0.08 75 1007.2
20200330203530 45 239 7.0 13.0 0.00 0.08 0.08 76 1007.1
20200330203054 45 233 5.0 18.0 0.01 0.08 0.08 76 1006.9
20200330202536 45 217 8.0 19.0 0.01 0.08 0.08 76 1007.0
20200330202029 45 240 8.0 19.0 0.01 0.08 0.08 76 1007.0
20200330201541 45 203 7.0 15.0 0.01 0.08 0.08 78 1007.1
20200330201035 44 286 6.0 16.0 0.01 0.08 0.08 79 1007.0
20200330200531 44 231 9.0 16.0 0.01 0.08 0.08 79 1007.0
20200330200045 44 247 5.0 10.0 0.02 0.08 0.08 80 1007.0
20200330195538 44 317 5.0 18.0 0.02 0.09 0.08 80 1006.9
20200330195030 44 151 6.0 18.0 0.02 0.09 0.08 79 1006.7
20200330194542 44 215 6.0 20.0 0.02 0.09 0.08 81 1006.8
20200330194037 44 224 9.0 19.0 0.03 0.09 0.08 82 1006.7
20200330193530 44 188 6.0 21.0 0.03 0.09 0.08 85 1006.8
20200330193026 44 219 9.0 21.0 0.02 0.08 0.07 84 1007.0
20200330192539 44 232 9.0 20.0 0.02 0.08 0.07 83 1007.0
20200330192032 44 266 7.0 13.0 0.03 0.08 0.07 84 1006.8
20200330191545 44 213 6.0 20.0 0.03 0.08 0.07 85 1006.8
20200330191038 44 261 7.0 12.0 0.04 0.08 0.07 85 1006.7
20200330190531 45 264 5.0 14.0 0.04 0.08 0.07 85 1006.7
20200330190043 45 232 6.0 19.0 0.03 0.07 0.06 84 1006.4
20200330185536 45 255 6.0 18.0 0.03 0.09 0.06 84 1006.3
20200330185033 45 238 7.0 21.0 0.03 0.09 0.06 83 1005.9
20200330184526 45 262 9.0 21.0 0.03 0.09 0.06 85 1005.9
20200330184039 45 200 8.0 14.0 0.02 0.08 0.05 87 1006.0
20200330183531 45 235 6.0 18.0 0.02 0.08 0.05 88 1006.0
20200330183045 45 209 7.0 18.0 0.02 0.08 0.05 86 1005.9
20200330182537 46 221 6.0 14.0 0.02 0.08 0.05 87 1005.7
20200330182030 46 222 6.0 14.0 0.01 0.07 0.04 86 1005.7
20200330181543 46 208 6.0 13.0 0.01 0.07 0.04 86 1005.7
20200330181040 46 159 7.0 20.0 0.00 0.06 0.03 84 1005.6
20200330180532 46 161 7.0 21.0 0.00 0.06 0.03 83 1005.6
20200330180046 46 178 8.0 21.0 0.00 0.06 0.03 82 1005.5
20200330175538 46 224 8.0 16.0 0.00 0.06 0.03 84 1005.6
20200330175031 46 146 5.0 16.0 0.01 0.06 0.03 87 1005.8
20200330174544 45 167 6.0 16.0 0.01 0.06 0.03 87 1006.0
20200330174037 45 148 7.0 12.0 0.01 0.06 0.03 87 1006.1
20200330173530 45 182 5.0 11.0 0.01 0.06 0.03 87 1005.9
20200330173027 45 164 6.0 20.0 0.01 0.06 0.03 85 1006.2
20200330172539 45 201 6.0 20.0 0.01 0.06 0.03 84 1006.0
20200330172034 45 157 7.0 14.0 0.01 0.06 0.03 84 1005.9
20200330171526 45 192 4.0 15.0 0.01 0.06 0.03 86 1005.8
20200330171039 45 143 6.0 19.0 0.01 0.06 0.03 85 1005.8
20200330170532 45 180 7.0 19.0 0.01 0.06 0.03 85 1006.0
20200330170045 45 142 6.0 16.0 0.01 0.06 0.03 86 1006.0